{"data":{"norad_id":48052,"epoch":"2026-05-25T04:31:43.383648Z","epoch_age_seconds":65534,"freshness":"FRESH","line1":"1 48052U 21025L   26145.18869657  .00000278  00000+0  72761-3 0  9999","line2":"2 48052  87.8951 324.7990 0001813  96.1196 264.0140 13.13468694250557","mean_motion":13.13468694,"eccentricity":0.0001813,"inclination_deg":87.8951,"raan_deg":324.799,"arg_perigee_deg":96.1196,"mean_anomaly_deg":264.014,"bstar":0.00072761,"rev_number":25055,"period_min":109.63337052326,"perigee_km":1208.3947421196,"apogee_km":1211.1461173536,"semimajor_km":7587.9074297366,"source":"CELESTRAK","updated_at":"2026-05-25T13:38:22.389509Z"}}